Time,TemperatureF,DewpointF,PressureIn,WindDirection,WindDirectionDegrees,WindSpeedMPH,WindSpeedGustMPH,Humidity,HourlyPrecipIn,Conditions,Clouds,dailyrainin,SoftwareType,DateUTC
2013-11-20 00:02:00,44.0,36.0,-100.00,West,274,4.0,12.0,74,-99.99,,,-99.99,,2013-11-20 08:02:00,
2013-11-20 00:21:00,44.0,37.0,-100.00,West,277,3.0,8.0,77,-99.99,,,-99.99,,2013-11-20 08:21:00,
2013-11-20 00:42:00,43.0,37.0,-100.00,WNW,287,6.0,13.0,79,-99.99,,,-99.99,,2013-11-20 08:42:00,
2013-11-20 01:12:00,43.0,38.0,-100.00,WSW,240,3.0,6.0,82,-99.99,,,-99.99,,2013-11-20 09:12:00,
2013-11-20 01:21:00,43.0,37.0,-100.00,WSW,256,4.0,9.0,78,-99.99,,,-99.99,,2013-11-20 09:21:00,
2013-11-20 01:43:00,42.0,36.0,-100.00,West,278,5.0,13.0,80,-99.99,,,-99.99,,2013-11-20 09:43:00,
2013-11-20 02:12:00,42.0,37.0,-100.00,West,281,6.0,10.0,82,-99.99,,,-99.99,,2013-11-20 10:12:00,
2013-11-20 02:23:00,42.0,36.0,-100.00,West,274,5.0,9.0,80,-99.99,,,-99.99,,2013-11-20 10:23:00,
2013-11-20 02:32:00,42.0,36.0,-100.00,West,274,5.0,9.0,80,-99.99,,,-99.99,,2013-11-20 10:32:00,
2013-11-20 03:12:00,42.0,36.0,-100.00,West,277,6.0,13.0,80,-99.99,,,-99.99,,2013-11-20 11:12:00,
2013-11-20 03:22:00,42.0,35.0,-100.00,West,271,6.0,10.0,77,-99.99,,,-99.99,,2013-11-20 11:22:00,
2013-11-20 03:33:00,42.0,35.0,-100.00,West,271,6.0,10.0,77,-99.99,,,-99.99,,2013-11-20 11:33:00,
2013-11-20 03:42:00,42.0,35.0,-100.00,West,271,6.0,10.0,77,-99.99,,,-99.99,,2013-11-20 11:42:00,
2013-11-20 03:52:00,42.0,35.0,-100.00,WSW,247,2.0,6.0,76,-99.99,,,-99.99,,2013-11-20 11:52:00,
2013-11-20 04:02:00,42.0,35.0,-100.00,WSW,247,2.0,6.0,76,-99.99,,,-99.99,,2013-11-20 12:02:00,
2013-11-20 04:42:00,41.0,36.0,-100.00,NW,312,0.0,3.0,83,-99.99,,,-99.99,,2013-11-20 12:42:00,
2013-11-20 04:52:00,41.0,37.0,-100.00,SW,232,0.0,10.0,84,-99.99,,,-99.99,,2013-11-20 12:52:00,
2013-11-20 05:01:00,41.0,37.0,-100.00,SW,232,0.0,10.0,84,-99.99,,,-99.99,,2013-11-20 13:01:00,
2013-11-20 05:21:00,41.0,36.0,-100.00,SW,229,2.0,9.0,83,-99.99,,,-99.99,,2013-11-20 13:21:00,
2013-11-20 05:42:00,42.0,37.0,-100.00,WNW,282,0.0,3.0,82,-99.99,,,-99.99,,2013-11-20 13:42:00,
2013-11-20 05:52:00,42.0,34.0,-100.00,West,265,2.0,10.0,74,-99.99,,,-99.99,,2013-11-20 13:52:00,
2013-11-20 06:02:00,42.0,34.0,-100.00,West,265,2.0,10.0,74,-99.99,,,-99.99,,2013-11-20 14:02:00,
2013-11-20 06:22:00,43.0,35.0,-100.00,NW,315,1.0,4.0,74,-99.99,,,-99.99,,2013-11-20 14:22:00,
2013-11-20 06:42:00,42.0,35.0,-100.00,SSW,213,1.0,5.0,75,-99.99,,,-99.99,,2013-11-20 14:42:00,
2013-11-20 07:11:00,41.0,35.0,-100.00,WSW,253,2.0,10.0,80,-99.99,,,-99.99,,2013-11-20 15:11:00,
2013-11-20 07:21:00,43.0,35.0,-100.00,West,260,2.0,11.0,74,-99.99,,,-99.99,,2013-11-20 15:21:00,
2013-11-20 07:33:00,43.0,35.0,-100.00,West,260,2.0,11.0,74,-99.99,,,-99.99,,2013-11-20 15:33:00,
2013-11-20 08:12:00,42.0,36.0,-100.00,SW,230,3.0,10.0,80,-99.99,,,-99.99,,2013-11-20 16:12:00,
2013-11-20 08:23:00,43.0,36.0,-100.00,WSW,256,2.0,7.0,77,-99.99,,,-99.99,,2013-11-20 16:23:00,
2013-11-20 08:34:00,43.0,36.0,-100.00,WSW,256,2.0,7.0,77,-99.99,,,-99.99,,2013-11-20 16:34:00,
2013-11-20 09:12:00,42.0,37.0,-100.00,West,265,2.0,7.0,83,-99.99,,,-99.99,,2013-11-20 17:12:00,
2013-11-20 09:22:00,42.0,37.0,-100.00,West,265,2.0,7.0,83,-99.99,,,-99.99,,2013-11-20 17:22:00,
2013-11-20 09:33:00,42.0,37.0,-100.00,West,265,2.0,7.0,83,-99.99,,,-99.99,,2013-11-20 17:33:00,
2013-11-20 09:41:00,43.0,38.0,-100.00,SSE,162,1.0,4.0,82,-99.99,,,-99.99,,2013-11-20 17:41:00,
2013-11-20 09:52:00,43.0,38.0,-100.00,NW,308,2.0,7.0,84,-99.99,,,-99.99,,2013-11-20 17:52:00,
2013-11-20 10:01:00,43.0,38.0,-100.00,NW,308,2.0,7.0,84,-99.99,,,-99.99,,2013-11-20 18:01:00,
2013-11-20 10:21:00,43.0,38.0,-100.00,SSE,162,1.0,4.0,82,-99.99,,,-99.99,,2013-11-20 18:21:00,
2013-11-20 10:32:00,43.0,38.0,-100.00,SSE,162,1.0,4.0,82,-99.99,,,-99.99,,2013-11-20 18:32:00,
2013-11-20 13:11:00,48.0,36.0,-100.00,SE,143,2.0,8.0,62,-99.99,,,-99.99,,2013-11-20 21:11:00,
2013-11-20 13:21:00,48.0,36.0,-100.00,East,97,2.0,7.0,64,-99.99,,,-99.99,,2013-11-20 21:21:00,
2013-11-20 13:43:00,47.0,35.0,-100.00,South,169,3.0,6.0,64,-99.99,,,-99.99,,2013-11-20 21:43:00,
2013-11-20 14:13:00,49.0,37.0,-100.00,ESE,119,0.0,5.0,62,-99.99,,,-99.99,,2013-11-20 22:13:00,
2013-11-20 14:23:00,49.0,37.0,-100.00,ESE,119,0.0,5.0,62,-99.99,,,-99.99,,2013-11-20 22:23:00,
2013-11-20 14:42:00,49.0,37.0,-100.00,East,99,2.0,5.0,62,-99.99,,,-99.99,,2013-11-20 22:42:00,
2013-11-20 14:53:00,48.0,34.0,-100.00,South,179,5.0,11.0,58,-99.99,,,-99.99,,2013-11-20 22:53:00,
2013-11-20 15:12:00,48.0,34.0,-100.00,WSW,243,3.0,10.0,57,-99.99,,,-99.99,,2013-11-20 23:12:00,
2013-11-20 15:21:00,48.0,34.0,-100.00,WSW,243,3.0,10.0,57,-99.99,,,-99.99,,2013-11-20 23:21:00,
2013-11-20 15:42:00,48.0,35.0,-100.00,South,185,3.0,8.0,60,-99.99,,,-99.99,,2013-11-20 23:42:00,
2013-11-20 15:52:00,47.0,36.0,-100.00,SE,138,4.0,11.0,65,-99.99,,,-99.99,,2013-11-20 23:52:00,
2013-11-20 16:11:00,47.0,35.0,-100.00,East,96,0.0,2.0,64,-99.99,,,-99.99,,2013-11-21 00:11:00,
2013-11-20 16:21:00,47.0,35.0,-100.00,East,96,0.0,2.0,64,-99.99,,,-99.99,,2013-11-21 00:21:00,
2013-11-20 16:42:00,46.0,35.0,-100.00,SE,145,1.0,8.0,66,-99.99,,,-99.99,,2013-11-21 00:42:00,
2013-11-20 16:52:00,46.0,35.0,-100.00,West,261,1.0,4.0,66,-99.99,,,-99.99,,2013-11-21 00:52:00,
2013-11-20 17:02:00,46.0,35.0,-100.00,West,261,1.0,4.0,66,-99.99,,,-99.99,,2013-11-21 01:02:00,
2013-11-20 17:11:00,46.0,35.0,-100.00,West,261,1.0,4.0,66,-99.99,,,-99.99,,2013-11-21 01:11:00,
2013-11-20 17:21:00,46.0,35.0,-100.00,West,261,1.0,4.0,66,-99.99,,,-99.99,,2013-11-21 01:21:00,
2013-11-20 19:11:00,41.0,38.0,-100.00,SSW,206,2.0,5.0,88,-99.99,,,-99.99,,2013-11-21 03:11:00,
2013-11-20 19:21:00,40.0,37.0,-100.00,South,181,3.0,6.0,90,-99.99,,,-99.99,,2013-11-21 03:21:00,
2013-11-20 19:43:00,41.0,38.0,-100.00,WSW,243,1.0,5.0,90,-99.99,,,-99.99,,2013-11-21 03:43:00,
2013-11-20 19:54:00,40.0,37.0,-100.00,South,181,3.0,6.0,90,-99.99,,,-99.99,,2013-11-21 03:54:00,
2013-11-20 20:03:00,40.0,37.0,-100.00,South,181,3.0,6.0,90,-99.99,,,-99.99,,2013-11-21 04:03:00,
2013-11-20 20:13:00,40.0,37.0,-100.00,South,181,3.0,6.0,90,-99.99,,,-99.99,,2013-11-21 04:13:00,
2013-11-20 20:53:00,39.0,38.0,-100.00,SSE,168,2.0,6.0,95,-99.99,,,-99.99,,2013-11-21 04:53:00,
2013-11-20 21:02:00,39.0,38.0,-100.00,SSE,168,2.0,6.0,95,-99.99,,,-99.99,,2013-11-21 05:02:00,
2013-11-20 21:42:00,38.0,36.0,-100.00,NNW,329,0.0,4.0,94,-99.99,,,-99.99,,2013-11-21 05:42:00,
2013-11-20 22:12:00,38.0,36.0,-100.00,NNW,335,0.0,5.0,94,-99.99,,,-99.99,,2013-11-21 06:12:00,
2013-11-20 22:22:00,38.0,36.0,-100.00,North,0,0.0,5.0,94,-99.99,,,-99.99,,2013-11-21 06:22:00,
2013-11-20 22:43:00,38.0,36.0,-100.00,WNW,302,1.0,8.0,94,-99.99,,,-99.99,,2013-11-21 06:43:00,
2013-11-20 23:11:00,38.0,36.0,-100.00,North,354,1.0,7.0,93,-99.99,,,-99.99,,2013-11-21 07:11:00,
2013-11-20 23:22:00,38.0,36.0,-100.00,North,354,1.0,7.0,93,-99.99,,,-99.99,,2013-11-21 07:22:00,
2013-11-20 23:42:00,37.0,35.0,-100.00,NNE,16,4.0,16.0,94,-99.99,,,-99.99,,2013-11-21 07:42:00,